When you browse on this site, cookies collect data to enhance your experience and personalize the content and advertising you see.
Visit our Privacy Policy to learn more. By continuing to use the site, you agree to this use of cookies and data.
EN

Hourly Weather Godzieby

Today, 23 September, Wednesday

Time Temperature Precipitation Wind Pressure Humidity
00:00 +17°C° 0 mm 3 mps 747 mmHg 60%
01:00 +17°C° 0 mm 4 mps 747 mmHg 60%
02:00 +17°C° 0 mm 4 mps 746 mmHg 60%
03:00 +17°C° 0 mm 3 mps 746 mmHg 60%
04:00 +17°C° 0 mm 3 mps 746 mmHg 60%
05:00 +17°C° 0 mm 3 mps 746 mmHg 59%
06:00 +17°C° 0 mm 3 mps 746 mmHg 59%
07:00 +18°C° 0 mm 3 mps 746 mmHg 55%
08:00 +20°C° 0 mm 4 mps 745 mmHg 51%
09:00 +22°C° 0 mm 4 mps 745 mmHg 46%
10:00 +26°C° 0 mm 4 mps 745 mmHg 41%
11:00 +26°C° 0 mm 4 mps 745 mmHg 39%
12:00 +27°C° 0 mm 5 mps 745 mmHg 37%
13:00 +28°C° 0 mm 5 mps 745 mmHg 35%
14:00 +28°C° 0 mm 4 mps 744 mmHg 38%
15:00 +27°C° 0 mm 3 mps 744 mmHg 41%
16:00 +27°C° 0 mm 3 mps 743 mmHg 45%
17:00 +25°C° 0 mm 3 mps 743 mmHg 49%
18:00 +22°C° 0 mm 3 mps 743 mmHg 54%
19:00 +20°C° 0 mm 2 mps 743 mmHg 59%
20:00 +20°C° 0 mm 2 mps 743 mmHg 61%
21:00 +19°C° 0 mm 2 mps 743 mmHg 63%
22:00 +19°C° 0 mm 2 mps 743 mmHg 65%
23:00 +19°C° 0 mm 2 mps 743 mmHg 66%

Tomorrow, 24 September, Thursday

Time Temperature Precipitation Wind Pressure Humidity
00:00 +19°C° 0 mm 2 mps 743 mmHg 67%
01:00 +18°C° 0 mm 2 mps 743 mmHg 68%
02:00 +18°C° 0 mm 2 mps 743 mmHg 70%
03:00 +17°C° 0 mm 3 mps 743 mmHg 72%
04:00 +17°C° 0 mm 3 mps 743 mmHg 74%
05:00 +17°C° 0 mm 3 mps 743 mmHg 75%
06:00 +17°C° 0 mm 3 mps 743 mmHg 75%
07:00 +18°C° 0 mm 3 mps 743 mmHg 76%
08:00 +19°C° 0 mm 4 mps 743 mmHg 71%
09:00 +21°C° 0 mm 4 mps 743 mmHg 67%
10:00 +22°C° 0 mm 4 mps 744 mmHg 62%
11:00 +23°C° 0 mm 4 mps 744 mmHg 57%
12:00 +25°C° 0 mm 4 mps 744 mmHg 51%
13:00 +26°C° 0 mm 4 mps 744 mmHg 46%
14:00 +26°C° 0 mm 3 mps 743 mmHg 47%
15:00 +25°C° 0 mm 3 mps 743 mmHg 48%
16:00 +25°C° 0 mm 2 mps 743 mmHg 49%
17:00 +24°C° 0 mm 2 mps 744 mmHg 53%
18:00 +21°C° 0 mm 2 mps 744 mmHg 58%
19:00 +19°C° 0 mm 2 mps 744 mmHg 62%
20:00 +19°C° 0 mm 2 mps 744 mmHg 65%
21:00 +18°C° 0 mm 2 mps 744 mmHg 67%
22:00 +18°C° 0 mm 2 mps 744 mmHg 69%
23:00 +17°C° 0 mm 2 mps 743 mmHg 71%

Day after tomorrow, 25 September, Friday

Time Temperature Precipitation Wind Pressure Humidity
00:00 +17°C° 0 mm 2 mps 743 mmHg 74%
01:00 +18°C° 0 mm 1 mps 743 mmHg 76%
02:00 +16°C° 0 mm 2 mps 742 mmHg 77%
03:00 +16°C° 0 mm 2 mps 742 mmHg 78%
04:00 +16°C° 0 mm 2 mps 741 mmHg 80%
05:00 +16°C° 0 mm 3 mps 740 mmHg 79%
06:00 +17°C° 0 mm 3 mps 740 mmHg 78%
07:00 +17°C° 0 mm 4 mps 739 mmHg 78%
08:00 +19°C° 0 mm 5 mps 738 mmHg 71%
09:00 +21°C° 0 mm 6 mps 738 mmHg 65%
10:00 +22°C° 0 mm 6 mps 737 mmHg 59%
11:00 +22°C° 0.2 mm 7 mps 737 mmHg 59%
12:00 +22°C° 0.2 mm 7 mps 737 mmHg 59%
13:00 +23°C° 0.2 mm 8 mps 736 mmHg 59%
14:00 +21°C° 0.7 mm 7 mps 736 mmHg 68%
15:00 +19°C° 0.7 mm 6 mps 737 mmHg 77%
16:00 +16°C° 0.7 mm 6 mps 737 mmHg 86%
17:00 +15°C° 0.3 mm 5 mps 737 mmHg 86%
18:00 +14°C° 0.3 mm 4 mps 737 mmHg 86%
19:00 +14°C° 0.3 mm 3 mps 738 mmHg 87%
20:00 +13°C° 0 mm 3 mps 738 mmHg 87%
21:00 +13°C° 0 mm 3 mps 738 mmHg 88%
22:00 +14°C° 0 mm 2 mps 739 mmHg 89%
23:00 +14°C° 0 mm 2 mps 739 mmHg 87%

26 September, Saturday

Time Temperature Precipitation Wind Pressure Humidity
00:00 +13°C° 0 mm 3 mps 739 mmHg 86%
01:00 +12°C° 0 mm 3 mps 739 mmHg 84%
02:00 +12°C° 0.2 mm 3 mps 738 mmHg 85%
03:00 +12°C° 0.2 mm 3 mps 738 mmHg 86%
04:00 +12°C° 0.2 mm 3 mps 738 mmHg 86%
05:00 +11°C° 1.4 mm 3 mps 737 mmHg 88%
06:00 +11°C° 1.4 mm 4 mps 737 mmHg 91%
07:00 +10°C° 1.4 mm 5 mps 736 mmHg 93%
08:00 +12°C° 1.3 mm 4 mps 736 mmHg 93%
09:00 +12°C° 1.3 mm 4 mps 736 mmHg 93%
10:00 +12°C° 1.3 mm 4 mps 736 mmHg 94%
11:00 +12°C° 2.2 mm 4 mps 736 mmHg 94%
12:00 +13°C° 2.2 mm 5 mps 736 mmHg 95%
13:00 +13°C° 2.2 mm 5 mps 736 mmHg 95%
14:00 +12°C° 1.3 mm 5 mps 736 mmHg 94%
15:00 +10°C° 1.3 mm 6 mps 736 mmHg 94%
16:00 +10°C° 1.3 mm 6 mps 735 mmHg 93%
17:00 +9°C° 0.1 mm 6 mps 736 mmHg 93%
18:00 +9°C° 0.1 mm 6 mps 736 mmHg 92%
19:00 +9°C° 0.1 mm 6 mps 736 mmHg 92%
20:00 +9°C° 2.3 mm 6 mps 735 mmHg 93%
21:00 +9°C° 2.3 mm 6 mps 735 mmHg 95%
22:00 +10°C° 2.3 mm 6 mps 734 mmHg 96%
23:00 +10°C° 2.5 mm 5 mps 733 mmHg 96%

27 September, Sunday

Time Temperature Precipitation Wind Pressure Humidity
00:00 +12°C° 2.5 mm 5 mps 733 mmHg 96%
01:00 +12°C° 2.5 mm 4 mps 732 mmHg 96%
02:00 +12°C° 1 mm 5 mps 732 mmHg 96%
03:00 +12°C° 1 mm 5 mps 732 mmHg 95%
04:00 +12°C° 1 mm 5 mps 731 mmHg 95%
05:00 +11°C° 0.2 mm 6 mps 732 mmHg 93%
06:00 +10°C° 0.2 mm 6 mps 732 mmHg 91%
07:00 +9°C° 0.2 mm 7 mps 732 mmHg 90%
08:00 +9°C° 0 mm 7 mps 733 mmHg 88%
09:00 +9°C° 0 mm 8 mps 733 mmHg 86%
10:00 +9°C° 0 mm 8 mps 734 mmHg 84%
11:00 +7°C° 0 mm 8 mps 735 mmHg 83%
12:00 +6°C° 0 mm 9 mps 736 mmHg 83%
13:00 +6°C° 0 mm 9 mps 736 mmHg 82%
14:00 +6°C° 0.1 mm 8 mps 737 mmHg 83%
15:00 +5°C° 0.1 mm 8 mps 738 mmHg 83%
16:00 +5°C° 0.1 mm 7 mps 738 mmHg 84%
17:00 +5°C° 0 mm 7 mps 739 mmHg 84%
18:00 +5°C° 0 mm 7 mps 740 mmHg 84%
19:00 +5°C° 0 mm 7 mps 741 mmHg 84%
20:00 +5°C° 0 mm 6 mps 742 mmHg 84%
21:00 +6°C° 0 mm 5 mps 742 mmHg 84%
22:00 +6°C° 0 mm 5 mps 743 mmHg 84%
23:00 +6°C° 0 mm 4 mps 743 mmHg 83%

28 September, Monday

Time Temperature Precipitation Wind Pressure Humidity
00:00 +5°C° 0 mm 4 mps 743 mmHg 83%
01:00 +5°C° 0 mm 4 mps 743 mmHg 82%
02:00 +5°C° 0 mm 4 mps 743 mmHg 82%
03:00 +4°C° 0 mm 4 mps 744 mmHg 83%
04:00 +4°C° 0 mm 4 mps 744 mmHg 83%
05:00 +4°C° 0 mm 4 mps 744 mmHg 80%
06:00 +5°C° 0 mm 4 mps 744 mmHg 78%
07:00 +5°C° 0 mm 4 mps 744 mmHg 76%
08:00 +7°C° 0 mm 5 mps 744 mmHg 69%
09:00 +9°C° 0 mm 5 mps 744 mmHg 62%
10:00 +11°C° 0 mm 6 mps 744 mmHg 55%
11:00 +11°C° 0 mm 6 mps 744 mmHg 52%
12:00 +13°C° 0 mm 6 mps 744 mmHg 50%
13:00 +13°C° 0 mm 6 mps 744 mmHg 48%
14:00 +13°C° 0 mm 5 mps 744 mmHg 50%
15:00 +13°C° 0 mm 4 mps 744 mmHg 53%
16:00 +13°C° 0 mm 3 mps 744 mmHg 56%
17:00 +12°C° 0 mm 3 mps 744 mmHg 59%
18:00 +10°C° 0 mm 3 mps 744 mmHg 62%
19:00 +9°C° 0 mm 3 mps 745 mmHg 65%
20:00 +9°C° 0 mm 3 mps 745 mmHg 67%
21:00 +8°C° 0 mm 3 mps 745 mmHg 70%
22:00 +8°C° 0 mm 3 mps 745 mmHg 72%
23:00 +8°C° 0 mm 3 mps 744 mmHg 75%
Show more